Time,TemperatureF,DewpointF,PressureIn,WindDirection,WindDirectionDegrees,WindSpeedMPH,WindSpeedGustMPH,Humidity,HourlyPrecipIn,Conditions,Clouds,dailyrainin,SoftwareType,DateUTC
2013-08-06 00:01:00,54.0,-99.9,30.01,West,266,-999.0,1.0,-999,-99.99,,,-99.99,,2013-08-06 07:01:00,
2013-08-06 00:22:00,54.0,-99.9,30.01,West,266,-999.0,-999.0,-999,-99.99,,,-99.99,,2013-08-06 07:22:00,
2013-08-06 00:53:00,54.0,-99.9,30.01,West,271,2.0,4.0,-999,-99.99,,,-99.99,,2013-08-06 07:53:00,
2013-08-06 01:02:00,54.0,-99.9,30.01,West,272,2.0,4.0,-999,-99.99,,,-99.99,,2013-08-06 08:02:00,
2013-08-06 01:22:00,54.0,-99.9,30.01,West,269,3.0,5.0,-999,-99.99,,,-99.99,,2013-08-06 08:22:00,
2013-08-06 02:01:00,54.0,-99.9,30.01,NW,306,4.0,6.0,-999,-99.99,,,-99.99,,2013-08-06 09:01:00,
2013-08-06 02:22:00,54.0,-99.9,30.01,WNW,288,5.0,8.0,-999,-99.99,,,-99.99,,2013-08-06 09:22:00,
2013-08-06 03:02:00,54.0,-99.9,30.01,West,272,2.0,4.0,-999,-99.99,,,-99.99,,2013-08-06 10:02:00,
2013-08-06 04:02:00,54.0,-99.9,30.01,West,266,4.0,5.0,-999,-99.99,,,-99.99,,2013-08-06 11:02:00,
2013-08-06 04:32:00,54.0,-99.9,30.01,NW,307,3.0,5.0,-999,-99.99,,,-99.99,,2013-08-06 11:32:00,
2013-08-06 04:43:00,54.0,-99.9,30.00,NNW,343,3.0,4.0,-999,-99.99,,,-99.99,,2013-08-06 11:43:00,
2013-08-06 05:02:00,54.0,-99.9,30.00,NW,321,2.0,3.0,-999,-99.99,,,-99.99,,2013-08-06 12:02:00,
2013-08-06 05:22:00,54.0,-99.9,30.00,WNW,284,1.0,3.0,-999,-99.99,,,-99.99,,2013-08-06 12:22:00,
2013-08-06 05:43:00,54.0,-99.9,30.01,WNW,282,-999.0,-999.0,-999,-99.99,,,-99.99,,2013-08-06 12:43:00,
2013-08-06 05:52:00,54.0,-99.9,30.01,WSW,238,-999.0,1.0,-999,-99.99,,,-99.99,,2013-08-06 12:52:00,
2013-08-06 06:02:00,54.0,-99.9,30.01,NNW,330,-999.0,-999.0,-999,-99.99,,,-99.99,,2013-08-06 13:02:00,
2013-08-06 06:22:00,54.0,-99.9,30.01,NNW,345,1.0,1.0,-999,-99.99,,,-99.99,,2013-08-06 13:22:00,
2013-08-06 06:42:00,53.0,-99.9,30.02,West,265,1.0,2.0,-999,-99.99,,,-99.99,,2013-08-06 13:42:00,
2013-08-06 07:11:00,53.0,-99.9,30.02,NW,315,3.0,4.0,-999,-99.99,,,-99.99,,2013-08-06 14:11:00,
2013-08-06 07:22:00,54.0,-99.9,30.02,West,270,2.0,3.0,-999,-99.99,,,-99.99,,2013-08-06 14:22:00,
2013-08-06 07:53:00,54.0,-99.9,30.03,NNW,330,3.0,4.0,-999,-99.99,,,-99.99,,2013-08-06 14:53:00,
2013-08-06 08:33:00,54.0,-99.9,30.04,WNW,302,0.0,3.0,-999,-99.99,,,-99.99,,2013-08-06 15:33:00,
2013-08-06 08:44:00,54.0,-99.9,30.04,SW,216,-999.0,1.0,-999,-99.99,,,-99.99,,2013-08-06 15:44:00,
2013-08-06 08:52:00,54.0,-99.9,30.04,WSW,257,1.0,2.0,-999,-99.99,,,-99.99,,2013-08-06 15:52:00,
2013-08-06 09:02:00,54.0,-99.9,30.04,WNW,282,1.0,2.0,-999,-99.99,,,-99.99,,2013-08-06 16:02:00,
2013-08-06 10:02:00,55.0,-99.9,30.05,WNW,293,2.0,4.0,-999,-99.99,,,-99.99,,2013-08-06 17:02:00,
2013-08-06 10:22:00,55.0,-99.9,30.06,SSW,198,4.0,5.0,-999,-99.99,,,-99.99,,2013-08-06 17:22:00,
2013-08-06 10:44:00,55.0,-99.9,30.06,SSE,154,2.0,5.0,-999,-99.99,,,-99.99,,2013-08-06 17:44:00,
2013-08-06 11:02:00,55.0,-99.9,30.06,South,190,4.0,6.0,-999,-99.99,,,-99.99,,2013-08-06 18:02:00,
2013-08-06 11:22:00,55.0,-99.9,30.06,South,179,6.0,7.0,-999,-99.99,,,-99.99,,2013-08-06 18:22:00,
2013-08-06 13:01:00,57.0,-99.9,30.07,SSW,192,5.0,8.0,-999,-99.99,,,-99.99,,2013-08-06 20:01:00,
2013-08-06 13:11:00,57.0,-99.9,30.07,SSW,193,6.0,8.0,-999,-99.99,,,-99.99,,2013-08-06 20:11:00,
2013-08-06 13:22:00,58.0,-99.9,30.07,SW,226,2.0,6.0,-999,-99.99,,,-99.99,,2013-08-06 20:22:00,
2013-08-06 13:44:00,57.0,-99.9,30.06,WNW,292,1.0,5.0,-999,-99.99,,,-99.99,,2013-08-06 20:44:00,
2013-08-06 14:01:00,57.0,-99.9,30.07,West,264,3.0,10.0,-999,-99.99,,,-99.99,,2013-08-06 21:01:00,
2013-08-06 14:22:00,58.0,-99.9,30.06,SSW,211,6.0,10.0,-999,-99.99,,,-99.99,,2013-08-06 21:22:00,
2013-08-06 14:43:00,58.0,-99.9,30.06,SSW,197,4.0,9.0,-999,-99.99,,,-99.99,,2013-08-06 21:43:00,
2013-08-06 15:02:00,58.0,-99.9,30.06,South,191,3.0,9.0,-999,-99.99,,,-99.99,,2013-08-06 22:02:00,
2013-08-06 16:33:00,58.0,-99.9,30.05,South,184,4.0,7.0,-999,-99.99,,,-99.99,,2013-08-06 23:33:00,
2013-08-06 16:43:00,58.0,-99.9,30.05,SSW,195,4.0,7.0,-999,-99.99,,,-99.99,,2013-08-06 23:43:00,
2013-08-06 16:52:00,58.0,-99.9,30.05,SSW,193,5.0,7.0,-999,-99.99,,,-99.99,,2013-08-06 23:52:00,
2013-08-06 17:01:00,58.0,-99.9,30.05,SSW,213,4.0,7.0,-999,-99.99,,,-99.99,,2013-08-07 00:01:00,
2013-08-06 17:11:00,58.0,-99.9,30.05,South,183,4.0,6.0,-999,-99.99,,,-99.99,,2013-08-07 00:11:00,
2013-08-06 17:43:00,58.0,-99.9,30.04,South,189,3.0,7.0,-999,-99.99,,,-99.99,,2013-08-07 00:43:00,
2013-08-06 18:01:00,58.0,-99.9,30.04,SSW,197,5.0,8.0,-999,-99.99,,,-99.99,,2013-08-07 01:01:00,
2013-08-06 18:22:00,59.0,-99.9,30.05,SW,216,3.0,5.0,-999,-99.99,,,-99.99,,2013-08-07 01:22:00,
2013-08-06 18:43:00,58.0,-99.9,30.04,West,267,5.0,8.0,-999,-99.99,,,-99.99,,2013-08-07 01:43:00,
2013-08-06 19:02:00,58.0,-99.9,30.04,West,274,3.0,6.0,-999,-99.99,,,-99.99,,2013-08-07 02:02:00,
2013-08-06 19:43:00,58.0,-99.9,30.04,WSW,253,2.0,4.0,-999,-99.99,,,-99.99,,2013-08-07 02:43:00,
2013-08-06 19:53:00,58.0,-99.9,30.04,SSW,205,2.0,6.0,-999,-99.99,,,-99.99,,2013-08-07 02:53:00,
2013-08-06 20:32:00,58.0,-99.9,30.04,South,181,0.0,2.0,-999,-99.99,,,-99.99,,2013-08-07 03:32:00,
2013-08-06 20:43:00,58.0,-99.9,30.04,WNW,282,-999.0,1.0,-999,-99.99,,,-99.99,,2013-08-07 03:43:00,
2013-08-06 21:01:00,58.0,-99.9,30.04,SSE,163,1.0,2.0,-999,-99.99,,,-99.99,,2013-08-07 04:01:00,
2013-08-06 21:33:00,58.0,-99.9,30.05,WNW,290,2.0,3.0,-999,-99.99,,,-99.99,,2013-08-07 04:33:00,
2013-08-06 21:43:00,58.0,-99.9,30.06,WNW,288,2.0,5.0,-999,-99.99,,,-99.99,,2013-08-07 04:43:00,
2013-08-06 21:52:00,58.0,-99.9,30.06,West,261,3.0,5.0,-999,-99.99,,,-99.99,,2013-08-07 04:52:00,
2013-08-06 22:02:00,58.0,-99.9,30.06,West,265,4.0,6.0,-999,-99.99,,,-99.99,,2013-08-07 05:02:00,
2013-08-06 22:32:00,58.0,-99.9,30.06,West,263,4.0,7.0,-999,-99.99,,,-99.99,,2013-08-07 05:32:00,
2013-08-06 22:43:00,57.0,-99.9,30.06,West,264,4.0,6.0,-999,-99.99,,,-99.99,,2013-08-07 05:43:00,
2013-08-06 23:02:00,57.0,-99.9,30.07,West,269,4.0,6.0,-999,-99.99,,,-99.99,,2013-08-07 06:02:00,
2013-08-06 23:52:00,57.0,-99.9,30.07,West,274,3.0,5.0,-999,-99.99,,,-99.99,,2013-08-07 06:52:00,